Other Public Products
Issued by NWS Charleston, SC

Current Version | Previous Version | Graphics & Text | Print | Product List | Glossary On
Versions: 1 2 3 4 5 6 7 8 9 10 11 12 13 14 15 16 17 18 19 20 21 22 23 24 25 26 27 28 29 30 31 32 33 34 35 36 37 38 39 40 41 42 43 44 45 46 47 48 49 50
418
FPUS82 KCHS 231527
OPUCHS

TEST...KCHS/KSAV Gateway Observations...TEST
National Weather Service Charleston SC
1100 AM EDT FRI JUN 23 2017

NOTE: "fair" indicates few or no clouds below 12,000 feet with no
significant weather and/or obstructions to visibility.

SCZ050-WAZ558-NCZ071-TXZ119-213-PAZ071-DCZ001-FLZ074-172-MI076-
NYZ176-178-MAZ016-IL014-TNZ027-NJZ106-GAZ044-MD014-231600-

...Gateway Observations for Charleston International...

CITY           SKY/WX    TMP DP  RH WIND       PRES   REMARKS
Chas Airport   CLOUDY    85  74  69 SW12      30.05S HX  92
Seattle        SUNNY     62  49  62 N9        30.24R
Charlotte      PTSUNNY   81  72  74 SW10G23   30.02S
Dallas DFW     PTSUNNY   85  76  74 S3        29.80R HX  94
Dallas Love    PTSUNNY   84  75  74 VRB5      29.80R HX  92
Philladelphia  LGT RAIN  75  71  87 S16       29.81F
Wash National  PTSUNNY   82  75  79 S16G25    29.82F
Baltimore      CLOUDY    77  74  90 SW9G18    29.81F
Miami          MOSUNNY   89  74  60 SE13      30.05S HX  98
Detroit        CLOUDY    73  68  84 S3        29.61F
Newark         CLOUDY    82  73  74 S10       29.77F
Laguardia      CLOUDY    81  74  79 SW14G22   29.77F
J F K          CLOUDY    75  72  90 S9        29.80F
Boston Logan   CLOUDY    77  69  76 S10       29.77F
Ft. Lauderdale MOSUNNY   86  73  65 SE15      30.04S HX  93
Chicago O`Hare CLOUDY    71  61  70 N8        29.70S
Chicago Midway CLOUDY    71  64  78 N8        29.69F
Houston Bush   PTSUNNY   86  75  69 S13       29.83R HX  95
Houston Hobby  MOSUNNY   86  75  69 S13       29.83S HX  95
Nashville      PTSUNNY   84  71  65 S13G25    29.83F
Atlanta        PTSUNNY   80  71  74 S12G21    30.03R

$$

GAZ044-118-TXZ119-213-NCZ071-DCZ001-MDZ014-506-PAZ021-071-NJZ106-
NYZ176-178-MAZ106-OHZ011-021-055-MIZ076-KYZ091-ILZ014-INZ047-
MNZ060-ONZ431-231600-

...Gateway Observations for Savannah International...

CITY           SKY/WX    TMP DP  RH WIND       PRES   REMARKS
Savannah Arpt  CLOUDY    87  74  64 S8        30.06S HX  95
Atlanta        PTSUNNY   80  71  74 S12G21    30.03R
Charlotte      PTSUNNY   81  72  74 SW10G23   30.02S
Dallas DFW     PTSUNNY   85  76  74 S3        29.80R HX  94
Houston Bush   PTSUNNY   86  75  69 S13       29.83R HX  95
Wash National  PTSUNNY   82  75  79 S16G25    29.82F
Wash Dulles    PTSUNNY   82  72  71 SW14G22   29.81F
Baltimore      CLOUDY    77  74  90 SW9G18    29.81F
Philadelphia   LGT RAIN  75  71  87 S16       29.81F
Newark         CLOUDY    82  73  74 S10       29.77F
Laguardia      CLOUDY    81  74  79 SW14G22   29.77F
J F K          CLOUDY    75  72  90 S9        29.80F
Boston         CLOUDY    77  69  76 S10       29.77F
Pittsburg      RAIN      74  72  93 SW13G21   29.74F FOG
Akron          CLOUDY    77  71  82 SW13      29.69F
Cleveland      LGT RAIN  76  73  91 SW8       29.66F FOG
Cincinnati     CLOUDY    78  72  81 SW14G20   29.76S
Columbus       RAIN      74  74 100 SW13G21   29.73S
Detroit        CLOUDY    73  68  84 S3        29.61F
Chicago O`Hare CLOUDY    71  61  70 N8        29.70S
Minneapolis    MOSUNNY   66  50  56 W17G23    29.80R
Indianapolis   LGT RAIN  74  73  97 SW10      29.70F
Toronto Canada LGT RAIN  68  66  94 S7        29.59

$$




USA.gov is the U.S. government's official web portal to all federal, state and local government web resources and services.